Weather History for KAUO - June, 2014

Change the Weather History Date:

Tuesday, June 17, 2014

  Actual Average Record
Temperature  
Mean Temperature 81 °F -  
Max Temperature 90 °F - 98 °F (1963)
Min Temperature 72 °F - 53 °F (1960)
Cooling Degree Days 16    
Month to date cooling degree days 170  
Year to date cooling degree days 386  
Since 1 June cooling degree days 170  
Growing Degree Days 30 (Base 50)    
Moisture  
Dew Point 68 °F    
Average Humidity 74    
Maximum Humidity 89    
Minimum Humidity 46    
Precipitation  
Precipitation 0.02 in - 1.34 in (2011)
Month to date precipitation 1.96  
Year to date precipitation 27.40  
Sea Level Pressure  
Sea Level Pressure 30.19 in    
Wind  
Wind Speed 4 mph (NNE)    
Max Wind Speed 9 mph    
Max Gust Speed -    
Visibility 10 miles    
Events      
T = Trace of Precipitation, MM = Missing Value Source: NWS Daily Summary

Daily Weather History Graph

Daily Weather History Graph

Search for Another Location

Airport or City:

Trip Planner

Search our weather history database for the weather conditions in past years. The results will help you decide how hot, cold, wet, or windy it might be!

Date:

Astronomy

Jun. 17, 2014 Rise Set
Actual Time 5:33 AM CDT 7:51 PM CDT
Civil Twilight 5:05 AM CDT 8:20 PM CDT
Nautical Twilight 4:30 AM CDT 8:55 PM CDT
Astronomical Twilight 3:52 AM CDT 9:33 PM CDT
Moon 11:37 PM CDT (6/17) 10:32 AM CDT (6/17)
Length of Visible Light 15h 14m
Length of Day
14h 17m
Waning Gibbous, 73% of the Moon is Illuminated
Jun 17
Waning Gibbous
Jun 19
Last Quarter
Jun 27
New
Jul 5
First Quarter
Jul 12
Full

Hourly Weather History & Observations

Time (CDT) Temp. Heat Index Dew Point Humidity Pressure Visibility Wind Dir Wind Speed Gust Speed Precip Events Conditions
12:15 AM 73.4 °F - 66.2 °F 78% 30.18 in 10.0 mi ENE 3.5 mph - N/A   Clear
12:35 AM 73.4 °F - 66.2 °F 78% 30.18 in 10.0 mi Calm Calm - N/A   Clear
12:55 AM 71.6 °F - 66.2 °F 83% 30.18 in 10.0 mi North 4.6 mph - N/A   Clear
1:15 AM 71.6 °F - 66.2 °F 83% 30.17 in 10.0 mi North 5.8 mph - N/A   Clear
1:35 AM 71.6 °F - 66.2 °F 83% 30.16 in 10.0 mi North 4.6 mph - N/A   Clear
1:55 AM 71.6 °F - 66.2 °F 83% 30.16 in 10.0 mi North 4.6 mph - N/A   Clear
2:15 AM 71.6 °F - 66.2 °F 83% 30.16 in 10.0 mi North 5.8 mph - N/A   Clear
2:35 AM 71.6 °F - 66.2 °F 83% 30.15 in 10.0 mi Calm Calm - N/A   Clear
2:55 AM 71.6 °F - 66.2 °F 83% 30.16 in 10.0 mi NE 4.6 mph - N/A   Clear
3:15 AM 71.6 °F - 66.2 °F 83% 30.16 in 10.0 mi NE 6.9 mph - N/A   Clear
3:35 AM 71.6 °F - 66.2 °F 83% 30.16 in 10.0 mi NNE 6.9 mph - N/A   Clear
3:55 AM 71.6 °F - 66.2 °F 83% 30.16 in 10.0 mi East 3.5 mph - N/A   Clear
4:15 AM 71.6 °F - 66.2 °F 83% 30.17 in 10.0 mi NE 3.5 mph - N/A   Clear
4:35 AM 71.6 °F - 66.2 °F 83% 30.17 in 10.0 mi Calm Calm - N/A   Clear
4:55 AM 71.6 °F - 64.4 °F 78% 30.18 in 10.0 mi East 3.5 mph - N/A   Clear
5:15 AM 71.6 °F - 66.2 °F 83% 30.18 in 10.0 mi East 4.6 mph - N/A   Clear
5:35 AM 71.6 °F - 66.2 °F 83% 30.19 in 10.0 mi ESE 3.5 mph - N/A   Clear
5:55 AM 71.6 °F - 66.2 °F 83% 30.20 in 10.0 mi Calm Calm - N/A   Scattered Clouds
6:15 AM 71.6 °F - 66.2 °F 83% 30.21 in 10.0 mi Calm Calm - N/A   Partly Cloudy
6:55 AM 73.4 °F - 66.2 °F 78% 30.21 in 9.0 mi Calm Calm - N/A   Clear
7:15 AM 73.4 °F - 66.2 °F 78% 30.22 in 10.0 mi Calm Calm - N/A   Clear
7:55 AM 77.0 °F - 69.8 °F 78% 30.23 in 10.0 mi Calm Calm - N/A   Clear
8:15 AM 78.8 °F - 69.8 °F 74% 30.24 in 10.0 mi NE 3.5 mph - N/A   Clear
8:35 AM 78.8 °F - 69.8 °F 74% 30.24 in 10.0 mi NNE 3.5 mph - N/A   Clear
8:55 AM 80.6 °F 83.9 °F 69.8 °F 70% 30.24 in 10.0 mi NW 3.5 mph - N/A   Clear
9:15 AM 80.6 °F 83.9 °F 69.8 °F 70% 30.24 in 10.0 mi NW 3.5 mph - N/A   Clear
9:35 AM 82.4 °F 86.3 °F 69.8 °F 66% 30.24 in 10.0 mi NNW 5.8 mph - N/A   Clear
9:55 AM 82.4 °F 86.3 °F 69.8 °F 66% 30.24 in 10.0 mi NW 4.6 mph - N/A   Clear
10:15 AM 84.2 °F 87.3 °F 68.0 °F 58% 30.24 in 10.0 mi NE 5.8 mph - N/A   Clear
10:35 AM 84.2 °F 87.3 °F 68.0 °F 58% 30.24 in 10.0 mi Calm Calm - N/A   Clear
10:55 AM 86.0 °F 90.4 °F 69.8 °F 58% 30.24 in 10.0 mi North 4.6 mph - N/A   Clear
11:15 AM 86.0 °F 90.4 °F 69.8 °F 58% 30.24 in 10.0 mi NNW 3.5 mph - N/A   Clear
11:35 AM 86.0 °F 90.4 °F 69.8 °F 58% 30.24 in 10.0 mi North 4.6 mph - N/A   Partly Cloudy
11:55 AM 84.2 °F 89.6 °F 71.6 °F 66% 30.24 in 10.0 mi North 9.2 mph - N/A   Scattered Clouds
12:15 PM 78.8 °F - 64.4 °F 61% 30.23 in 10.0 mi North 8.1 mph - N/A   Partly Cloudy
12:35 PM 75.2 °F - 69.8 °F 83% 30.23 in 9.0 mi East 5.8 mph - 0.02 in   Scattered Clouds
12:55 PM 80.6 °F 83.9 °F 69.8 °F 70% 30.21 in 10.0 mi NE 5.8 mph - 0.02 in   Scattered Clouds
1:15 PM 84.2 °F 89.6 °F 71.6 °F 66% 30.21 in 10.0 mi NNE 4.6 mph - N/A   Clear
1:35 PM 87.8 °F 91.4 °F 68.0 °F 52% 30.20 in 10.0 mi North 4.6 mph - N/A   Clear
1:55 PM 87.8 °F 90.4 °F 66.2 °F 49% 30.19 in 10.0 mi ENE 3.5 mph - N/A   Clear
2:15 PM 87.8 °F 90.4 °F 66.2 °F 49% 30.18 in 10.0 mi ESE 3.5 mph - N/A   Clear
2:35 PM 89.6 °F 92.2 °F 66.2 °F 46% 30.18 in 10.0 mi Calm Calm - N/A   Clear
2:55 PM 84.2 °F 88.4 °F 69.8 °F 62% 30.18 in 10.0 mi SW 9.2 mph - N/A   Mostly Cloudy
3:15 PM 82.4 °F 85.4 °F 68.0 °F 62% 30.18 in 10.0 mi WSW 6.9 mph - N/A   Scattered Clouds
3:35 PM 80.6 °F 83.2 °F 68.0 °F 65% 30.17 in 10.0 mi NW 8.1 mph - N/A   Clear
3:55 PM 80.6 °F 82.7 °F 66.2 °F 61% 30.17 in 10.0 mi NNW 8.1 mph - N/A   Clear
4:15 PM 78.8 °F - 66.2 °F 65% 30.15 in 10.0 mi NW 6.9 mph - N/A   Clear
4:35 PM 80.6 °F 83.2 °F 68.0 °F 65% 30.14 in 10.0 mi NNW 4.6 mph - N/A   Clear
4:55 PM 82.4 °F 86.3 °F 69.8 °F 66% 30.14 in 10.0 mi NNW 3.5 mph - N/A   Clear
5:15 PM 82.4 °F 86.3 °F 69.8 °F 66% 30.15 in 10.0 mi NNE 4.6 mph - N/A   Clear
5:35 PM 80.6 °F 83.9 °F 69.8 °F 70% 30.15 in 10.0 mi North 4.6 mph - N/A   Clear
5:55 PM 80.6 °F 83.9 °F 69.8 °F 70% 30.14 in 10.0 mi Calm Calm - N/A   Clear
6:15 PM 80.6 °F 84.6 °F 71.6 °F 74% 30.14 in 10.0 mi NNE 3.5 mph - N/A   Clear
6:35 PM 82.4 °F 87.2 °F 71.6 °F 70% 30.14 in 10.0 mi NE 3.5 mph - N/A   Clear
6:55 PM 82.4 °F 87.2 °F 71.6 °F 70% 30.14 in 10.0 mi Calm Calm - N/A   Clear
7:15 PM 82.4 °F 86.3 °F 69.8 °F 66% 30.15 in 10.0 mi North 4.6 mph - N/A   Clear
7:35 PM 80.6 °F 83.9 °F 69.8 °F 70% 30.15 in 10.0 mi NNE 3.5 mph - N/A   Clear
7:55 PM 78.8 °F - 69.8 °F 74% 30.15 in 10.0 mi Calm Calm - N/A   Clear
8:15 PM 78.8 °F - 69.8 °F 74% 30.16 in 10.0 mi Calm Calm - N/A   Clear
8:35 PM 77.0 °F - 69.8 °F 78% 30.17 in 10.0 mi SSE 3.5 mph - N/A   Clear
8:55 PM 75.2 °F - 69.8 °F 83% 30.16 in 10.0 mi SE 3.5 mph - N/A   Clear
9:15 PM 75.2 °F - 71.6 °F 89% 30.17 in 7.0 mi ENE 3.5 mph - N/A   Clear
9:35 PM 75.2 °F - 69.8 °F 83% 30.18 in 3.0 mi NE 3.5 mph - N/A   Clear
9:55 PM 75.2 °F - 71.6 °F 89% 30.18 in 10.0 mi NE 3.5 mph - N/A   Clear
10:15 PM 75.2 °F - 71.6 °F 89% 30.18 in 10.0 mi Calm Calm - N/A   Clear
10:35 PM 73.4 °F - 69.8 °F 88% 30.18 in 10.0 mi NNE 3.5 mph - N/A   Clear
10:55 PM 73.4 °F - 69.8 °F 88% 30.19 in 9.0 mi NE 5.8 mph - N/A   Clear
11:15 PM 73.4 °F - 69.8 °F 88% 30.19 in 10.0 mi Calm Calm - N/A   Clear
11:35 PM 73.4 °F - 69.8 °F 88% 30.19 in 10.0 mi Calm Calm - N/A   Clear
11:55 PM 73.4 °F - 69.8 °F 88% 30.19 in 10.0 mi Calm Calm - N/A   Clear